Location: Vihti�l�
(61.3833°N, 23.0667°E)
Time: 05:49:39
(UTC+00:00)

Resurs 1-4 Rocket - Pass Details

Date: 29 November 2020
Orbit: 799 x 815 km, 98.6° (Epoch: 22 January)

Event Time Altitude Azimuth Distance (km) Brightness Sun altitude
Rises 02:55:09 0° 22° (NNE) 3,352 5.7 -28.4°
Reaches altitude 10° 02:58:02 10° 7° (N) 2,415 4.7 -28.1°
Enters shadow 02:59:35 16° 352° (N) 2,029 4.1 -27.9°
